Location: Chiroubles
(46.1812°N, 4.6660°E)
Time: 17:09:25
(UTC+00:00)

Cosmos 1741 Rocket - Pass Details

Date: 15 August 2020
Orbit: 761 x 783 km, 74.0° (Epoch: 22 September)

Event Time Altitude Azimuth Distance (km) Brightness Sun altitude
Rises 20:54:43 0° 207° (SSW) 3,221 7.0 -18.9°
Reaches altitude 10° 20:57:05 10° 210° (SSW) 2,302 6.3 -19.1°
Maximum altitude 21:02:18 68° 293° (WNW) 831 4.3 -19.8°
Drops below altitude 10° 21:07:35 10° 17° (NNE) 2,334 6.9 -20.4°
Sets 21:10:00 0° 20° (NNE) 3,269 7.7 -20.6°
